GPM-CORE

Last updated on Sun Apr 12 2026 00:02:35 GMT+0000 (Coordinated Universal Time)

1 39574U 14009C 26101.46788432 .00010358 00000+0 22682-3 0 9993 2 39574 64.9725 171.6783 0012642 257.1371 102.8357 15.44490839687506
UTC large
Height (km)
Speed (km/s)
/
Latitude / Longitude
Inclination (degrees)
Orbital Period (minutes)
Azimuth
Elevation
Range (km)
Doppler Factor

Next 0 passes for location: London (51.5072 / 0.1276)

Sorry there are no passes over London.
GPM-CORE